{"data":{"norad_id":58719,"epoch":"2026-09-20T13:18:51.945696Z","epoch_age_seconds":144975,"freshness":"FRESH","line1":"1 58719U 24002Q   26263.55476789  .00008910  00000+0  27453-3 0  9999","line2":"2 58719  53.1611  43.1293 0001197  59.3813 300.7307 15.34400608151871","mean_motion":15.34400608,"eccentricity":0.0001197,"inclination_deg":53.1611,"raan_deg":43.1293,"arg_perigee_deg":59.3813,"mean_anomaly_deg":300.7307,"bstar":0.00027453,"rev_number":15187,"period_min":93.847720894542,"perigee_km":461.88258474313,"apogee_km":463.52028146401,"semimajor_km":6840.8384331036,"source":"CELESTRAK","updated_at":"2026-09-21T09:00:33.949904Z"}}